Date String (YYYY-MM-DD hh:mm:ss) UTC,Instrument flags,Ambient pressure (hPa),Sample flow (lpm),Bypass flow (lpm),Sample temperature (°C),Ambient temperature (°C),ASC tube jacket temperature (°C),LED temperature (°C),Box temperature (°C),Sample RH (%),Span deviation,Mass concentration (μg/m³),Mass concentration (μg/m³),Mass concentration (μg/m³)
DateTimeUTC,F1_M11,P_M11,Q1_M11,Q2_M11,T1_M11,T2_M11,T3_M11,T4_M11,T5_M11,U1_M11,ZSPAN_M11,X0_M11,X2_M11,X1_M11
2022-12-19 12:00:00,,0820.7,4.97,0.00,21.1,19.4,00.0,30.1,22.5,05.1,0000.0,0005.36,0001.05,0000.76
2022-12-19 12:01:00,,0820.8,4.99,0.00,21.0,19.2,00.0,30.1,22.4,05.0,0000.0,0005.08,0000.94,0000.66
2022-12-19 12:02:00,,0820.8,5.03,0.00,21.0,19.7,00.0,30.0,22.5,05.0,0000.0,0004.96,0000.87,0000.61
2022-12-19 12:03:00,,0820.8,4.98,0.00,21.1,21.1,00.0,30.0,22.9,05.0,0000.0,0004.66,0000.79,0000.57
2022-12-19 12:04:00,,0820.7,5.03,0.00,21.3,21.8,00.0,30.0,23.2,04.9,0000.0,0004.12,0000.76,0000.55
2022-12-19 12:05:00,,0820.8,4.96,0.00,21.3,21.4,00.0,30.1,23.1,04.9,0000.0,0003.71,0000.75,0000.53
2022-12-19 12:06:00,,0820.8,5.02,0.00,21.3,20.8,00.0,30.1,23.0,04.8,0000.0,0002.13,0000.72,0000.51
2022-12-19 12:07:00,,0820.8,4.95,0.00,21.3,20.4,00.0,30.1,22.8,05.0,0000.0,0002.03,0000.69,0000.49
2022-12-19 12:08:00,,0820.8,5.03,0.00,21.2,19.9,00.0,30.1,22.7,04.9,0000.0,0001.73,0000.65,0000.47
2022-12-19 12:09:00,,0820.9,5.01,0.00,21.1,19.7,00.0,30.1,22.6,04.9,0000.0,0001.70,0000.65,0000.46
2022-12-19 12:10:00,,0820.9,4.95,0.00,21.1,19.7,00.0,30.1,22.5,04.9,0000.0,0001.41,0000.66,0000.45
2022-12-19 12:11:00,,0820.9,5.03,0.00,21.2,20.6,00.0,30.0,22.8,05.0,0000.0,0001.28,0000.65,0000.44
2022-12-19 12:12:00,,0820.9,4.97,0.00,21.3,21.8,00.0,30.0,23.1,04.9,0000.0,0001.19,0000.63,0000.43
2022-12-19 12:13:00,,0820.9,5.03,0.00,21.4,22.3,00.0,30.0,23.3,04.9,0000.0,0001.20,0000.64,0000.42
2022-12-19 12:14:00,,0820.9,4.96,0.00,21.4,21.5,00.0,30.1,23.2,05.0,0000.0,0001.16,0000.64,0000.42
2022-12-19 12:15:00,,0820.9,5.03,0.00,21.4,20.8,00.0,30.2,23.0,04.9,0000.0,0000.99,0000.61,0000.42
2022-12-19 12:16:00,,0820.9,4.98,0.00,21.3,20.1,00.0,30.2,22.8,04.9,0000.0,0000.95,0000.59,0000.41
2022-12-19 12:17:00,,0820.9,4.98,0.00,21.2,19.7,00.0,30.2,22.7,05.0,0000.0,0000.91,0000.59,0000.42
2022-12-19 12:18:00,,0820.9,5.02,0.00,21.2,19.2,00.0,30.1,22.5,05.0,0000.0,0000.92,0000.60,0000.42
2022-12-19 12:19:00,,0820.9,5.02,0.00,21.1,19.0,00.0,30.1,22.4,05.0,0000.0,0000.92,0000.60,0000.41
2022-12-19 12:20:00,,0820.9,5.00,0.00,21.0,19.1,00.0,30.1,22.4,05.0,0000.0,0000.92,0000.60,0000.43
2022-12-19 12:21:00,,0820.9,4.97,0.00,21.1,20.6,00.0,30.0,22.8,05.0,0000.0,0000.83,0000.57,0000.42
2022-12-19 12:22:00,,0820.9,5.02,0.00,21.2,21.5,00.0,30.0,23.1,05.0,0000.0,0000.73,0000.53,0000.42
2022-12-19 12:23:00,,0820.9,4.97,0.00,21.3,21.0,00.0,30.1,23.0,05.0,0000.0,0000.85,0000.53,0000.42
2022-12-19 12:24:00,,0820.9,5.03,0.00,21.2,20.4,00.0,30.1,22.8,04.9,0000.0,0000.98,0000.53,0000.42
2022-12-19 12:25:00,,0820.9,4.95,0.00,21.2,19.9,00.0,30.1,22.7,05.0,0000.0,0001.04,0000.53,0000.42
2022-12-19 12:26:00,,0820.9,5.02,0.00,21.1,19.6,00.0,30.1,22.6,05.0,0000.0,0001.06,0000.54,0000.42
2022-12-19 12:27:00,,0820.9,5.04,0.00,21.0,19.3,00.0,30.1,22.5,05.0,0000.0,0001.09,0000.55,0000.42
2022-12-19 12:28:00,,0821.0,4.98,0.00,21.0,19.0,00.0,30.0,22.4,05.1,0000.0,0001.17,0000.58,0000.43
2022-12-19 12:29:00,,0821.0,4.99,0.00,21.0,20.0,00.0,30.0,22.6,05.1,0000.0,0001.20,0000.58,0000.43
2022-12-19 12:30:00,,0821.0,5.03,0.00,21.1,21.3,00.0,30.0,23.0,05.0,0000.0,0001.21,0000.59,0000.43
2022-12-19 12:31:00,,0821.0,4.97,0.00,21.3,21.5,00.0,30.0,23.1,05.1,0000.0,0001.49,0000.60,0000.42
2022-12-19 12:32:00,,0821.0,5.02,0.00,21.3,20.9,00.0,30.1,23.0,05.1,0000.0,0002.08,0000.62,0000.42
2022-12-19 12:33:00,,0821.1,4.97,0.00,21.2,20.3,00.0,30.1,22.9,05.1,0000.0,0002.11,0000.64,0000.42
2022-12-19 12:34:00,,0821.0,5.02,0.00,21.2,19.9,00.0,30.1,22.8,05.1,0000.0,0002.02,0000.66,0000.42
2022-12-19 12:35:00,,0821.1,5.00,0.00,21.1,19.7,00.0,30.1,22.7,05.1,0000.0,0001.87,0000.65,0000.42
2022-12-19 12:36:00,,0821.0,4.97,0.00,21.1,19.5,00.0,30.1,22.6,05.2,0000.0,0001.79,0000.63,0000.42
2022-12-19 12:37:00,,0821.1,5.02,0.00,21.1,19.4,00.0,30.1,22.6,05.2,0000.0,0001.74,0000.62,0000.43
2022-12-19 12:38:00,,0821.1,5.03,0.00,21.1,19.7,00.0,30.0,22.7,05.2,0000.0,0001.76,0000.64,0000.44
2022-12-19 12:39:00,,0821.1,4.97,0.00,21.2,21.0,00.0,30.0,23.0,05.2,0000.0,0001.69,0000.61,0000.44
2022-12-19 12:40:00,,0821.1,5.00,0.00,21.3,22.0,00.0,30.0,23.3,05.1,0000.0,0001.70,0000.63,0000.45
2022-12-19 12:41:00,,0821.1,5.01,0.00,21.4,21.7,00.0,30.1,23.3,05.0,0000.0,0001.66,0000.61,0000.45
2022-12-19 12:42:00,,0821.1,4.99,0.00,21.4,21.2,00.0,30.1,23.2,04.9,0000.0,0001.36,0000.59,0000.45
2022-12-19 12:43:00,,0821.2,5.00,0.00,21.4,20.7,00.0,30.1,23.1,04.9,0000.0,0000.89,0000.59,0000.45
2022-12-19 12:44:00,,0821.2,5.03,0.00,21.4,20.5,00.0,30.2,23.1,04.9,0000.0,0000.89,0000.58,0000.45
2022-12-19 12:45:00,,0821.2,4.99,0.00,21.3,20.1,00.0,30.2,23.0,04.9,0000.0,0000.95,0000.59,0000.45
2022-12-19 12:46:00,,0821.2,4.99,0.00,21.3,19.8,00.0,30.2,22.9,05.0,0000.0,0000.91,0000.57,0000.45
2022-12-19 12:47:00,,0821.2,5.01,0.00,21.3,19.7,00.0,30.2,22.8,05.1,0000.0,0001.11,0000.59,0000.45
2022-12-19 12:48:00,,0821.1,5.02,0.00,21.3,19.7,00.0,30.1,22.8,05.1,0000.0,0001.40,0000.62,0000.44
2022-12-19 12:49:00,,0821.1,4.95,0.00,21.2,19.8,00.0,30.1,22.8,05.0,0000.0,0001.78,0000.62,0000.42
2022-12-19 12:50:00,,0821.2,5.02,0.00,21.3,20.8,00.0,30.1,23.1,05.0,0000.0,0001.77,0000.61,0000.42
2022-12-19 12:51:00,,0821.2,4.97,0.00,21.4,21.9,00.0,30.1,23.3,04.9,0000.0,0001.74,0000.58,0000.41
2022-12-19 12:52:00,,0821.2,5.03,0.00,21.5,21.7,00.0,30.2,23.4,05.0,0000.0,0002.13,0000.61,0000.42
2022-12-19 12:53:00,,0821.2,4.99,0.00,21.5,21.2,00.0,30.2,23.3,05.0,0000.0,0002.28,0000.63,0000.42
2022-12-19 12:54:00,,0821.1,5.02,0.00,21.5,20.8,00.0,30.2,23.2,05.0,0000.0,0002.85,0000.65,0000.42
2022-12-19 12:55:00,,0821.1,5.02,0.00,21.5,20.5,00.0,30.3,23.2,04.9,0000.0,0003.03,0000.66,0000.42
2022-12-19 12:56:00,,0821.1,4.95,0.00,21.5,20.3,00.0,30.3,23.1,04.9,0000.0,0002.97,0000.66,0000.41
2022-12-19 12:57:00,,0821.1,5.02,0.00,21.4,20.2,00.0,30.3,23.0,04.9,0000.0,0003.10,0000.70,0000.42
2022-12-19 12:58:00,,0821.0,5.02,0.00,21.4,20.1,00.0,30.3,23.0,05.0,0000.0,0003.05,0000.73,0000.42
2022-12-19 12:59:00,,0821.0,4.97,0.00,21.4,20.0,00.0,30.2,22.9,04.9,0000.0,0002.87,0000.73,0000.43
